Location: Camaret
(48.2753°N, 4.5961°W)
Time: 04:14:46
(UTC+00:00)

Cosmos 1697 Rocket - Pass Details

Date: 29 October 2020
Orbit: 831 x 845 km, 71.0° (Epoch: 01 December)

Event Time Altitude Azimuth Distance (km) Brightness Sun altitude
Rises 18:48:35 0° 199° (SSW) 3,364 6.1 -17.9°
Reaches altitude 10° 18:51:00 10° 198° (SSW) 2,435 5.3 -18.4°
Maximum altitude 18:56:34 74° 114° (ESE) 872 2.6 -19.3°
Enters shadow 19:01:25 14° 32° (NNE) 2,170 4.5 -20.1°
